Weather in Syatrakasy

Russia / Chuvash Republic     56°03′22″N   47°15′15″E
temp.,
°C
wind,
m/s
gust,
m/s
humid.,
%
clouds,
%
prec.,
mm/h
press.,
hPa
HPBL,
m
6 march, sat
sat600:00−8w599597 1.1 1009375
03:00−10wnw489696 1.2 1011184
06:00−15wnw479787 0.1 1012121
09:00−13w359460 0.1 1014171
12:00−10w469039 0.0 1015389
15:00−9wsw478959 0.1 1013482
18:00−13wsw449441 0.0 101366
21:00−14w349744 0.0 101343
7 march, sun
sun700:00−16wsw239764 0.0 101221
03:00−16wsw239843 0.0 101122
06:00−16sw339883 0.0 101025
09:00−14ssw469689 0.1 1009203
12:00−10ssw589385 0.0 1007409
15:00−7s7118592 0.0 1003752
18:00−8s71394100 0.7 999870
21:00−7s81494100 1.8 996795
8 march, mon
mon800:00−5ssw71395100 1.0 993736
03:00−8w51383100 1.6 993420
06:00−13wsw5119128 0.0 995218
09:00−11sw5109015 0.0 996346
12:00−7sw699067 0.1 996688
15:00−5sw588783 0.2 997905
18:00−6wnw5890100 1.4 998478
21:00−12wnw479288 1.4 1000100
9 march, tue
tue900:00−15wnw349757 0.0 100240
03:00−15nw359772 0.1 1004112
06:00−18nw479789 0.1 1006142
09:00−18nw479691 0.1 1009245
12:00−15nw469396 0.0 1010372
15:00−13nw579098 0.1 1012607
18:00−16wnw4696100 0.1 1013122
21:00−18nnw3398100 0.1 101568
10 march, wed
wed1000:00−21nw3410094 0.0 101574
03:00−24nw3410092 0.1 101755
06:00−26nnw4610096 0.0 1018102
09:00−25nnw479794 0.0 1019246
12:00−21nnw469380 0.0 1021470
15:00−19nw578990 0.0 1022577
18:00−22wnw349768 0.0 102242
21:00−23wnw479645 0.0 1024124